Location: Czu?�w
(50.1404°N, 18.9919°E)
Time: 04:56:23
(UTC+00:00)

SL-4 R/B - Pass Details

Date: 27 October 2020
Orbit: 427 x 665 km, 51.6° (Epoch: 25 November)

Event Time Altitude Azimuth Distance (km) Brightness Sun altitude
Rises 17:43:30 0° 285° (WNW) 2,456 6.8 -22.1°
Reaches altitude 10° 17:45:34 10° 285° (WNW) 1,609 5.5 -22.4°
Enters shadow 17:48:45 69° 286° (WNW) 519 2.0 -23.0°
